Weather reports worldwide

Advertisment
Hoorn-A, Netherlands (6212): temperature & dewpoint: 16.02.2020 07:00:00 - 22.02.2020 07:00:00 (CET)Hoorn-A, Netherlands (6212): wind speed & gusts: 16.02.2020 07:00:00 - 22.02.2020 07:00:00 (CET)Hoorn-A, Netherlands (6212): wind direction: 16.02.2020 07:00:00 - 22.02.2020 07:00:00 (CET)Hoorn-A, Netherlands (6212): reduced air pressure: 16.02.2020 07:00:00 - 22.02.2020 07:00:00 (CET)Hoorn-A, Netherlands (6212): visibility: 16.02.2020 07:00:00 - 22.02.2020 07:00:00 (CET)
Date & Time tt [°C] td [°C] ff [km/h] ff [kn] fx [km/h] fx [kn] dd ppp [hPa] vv [km]
22.02.2020 07:00:00 9,0 6,0 80 43 - - S 1010,0 9
22.02.2020 06:00:00 8,9 5,9 78 42 79 43 S 1010,4 9
22.02.2020 05:00:00 8,8 5,9 72 39 79 43 S 1010,5 10
22.02.2020 04:00:00 8,9 5,8 80 43 79 43 S 1011,6 10
22.02.2020 03:00:00 9,1 5,6 74 40 76 41 S 1012,5 10
22.02.2020 02:00:00 9,1 5,7 58 31 68 37 S 1013,8 12
22.02.2020 01:00:00 9,1 5,7 58 31 72 39 S 1014,9 11
22.02.2020 00:00:00 9,1 5,9 65 35 65 35 S 1015,9 10
21.02.2020 23:00:00 8,9 6,2 65 35 68 37 S 1015,8 10
21.02.2020 22:00:00 8,7 6,3 63 34 65 35 S 1016,6 10
21.02.2020 21:00:00 8,9 6,0 67 36 65 35 S 1017,4 10
21.02.2020 20:00:00 8,6 6,4 65 35 65 35 S 1017,1 9
21.02.2020 19:00:00 8,5 6,4 67 36 65 35 S 1017,5 10
21.02.2020 18:00:00 8,4 6,1 63 34 65 35 S 1018,4 10
21.02.2020 17:00:00 8,5 4,8 68 37 68 37 S 1018,6 10
21.02.2020 16:00:00 8,5 4,4 70 38 68 37 S 1018,7 10
21.02.2020 15:00:00 8,2 4,4 67 36 72 39 S 1018,8 10
21.02.2020 14:00:00 8,1 4,2 61 33 61 33 S 1019,3 10
21.02.2020 13:00:00 7,8 4,2 59 32 61 33 SSW 1020,1 10
21.02.2020 12:00:00 7,6 3,8 52 28 54 29 SSW 1020,7 10
21.02.2020 11:00:00 7,4 3,7 50 27 50 27 SSW 1020,6 10
21.02.2020 10:00:00 7,3 2,9 48 26 47 25 SSW 1020,4 10
21.02.2020 09:00:00 7,1 2,4 52 28 50 27 SW 1020,3 10
21.02.2020 08:00:00 7,0 2,4 54 29 54 29 SW 1019,8 10
21.02.2020 07:00:00 6,7 2,5 55 30 54 29 SW 1019,4 10
21.02.2020 06:00:00 6,8 1,9 57 31 58 31 SW 1018,6 10
21.02.2020 05:00:00 6,8 2,1 63 34 65 35 SW 1018,4 10
21.02.2020 04:00:00 6,8 1,5 63 34 72 39 WSW 1017,4 10
21.02.2020 03:00:00 6,8 1,8 65 35 72 39 WSW 1016,3 10
21.02.2020 02:00:00 6,7 0,9 72 39 72 39 WSW 1015,5 10
21.02.2020 01:00:00 6,7 0,5 74 40 76 41 WSW 1014,5 10
21.02.2020 00:00:00 6,7 0,8 74 40 76 41 WSW 1013,5 10
20.02.2020 23:00:00 6,8 0,9 76 41 76 41 WSW 1011,8 10
20.02.2020 22:00:00 7,1 -0,5 76 41 79 43 W 1009,9 10
20.02.2020 21:00:00 6,9 1,4 72 39 76 41 W 1008,5 10
20.02.2020 20:00:00 6,4 3,5 61 33 61 33 W 1007,6 10
20.02.2020 19:00:00 6,4 3,1 61 33 68 37 W 1006,0 10
20.02.2020 18:00:00 7,1 5,3 57 31 86 47 WSW 1003,8 5
20.02.2020 17:00:00 8,1 7,6 80 43 83 45 S 1001,3 3,6
20.02.2020 16:00:00 8,2 7,3 78 42 83 45 S 1002,4 4,9
20.02.2020 15:00:00 8,8 6,5 58 31 72 39 S 1003,9 13
20.02.2020 14:00:00 8,5 6,7 68 37 72 39 S 1004,7 10
20.02.2020 13:00:00 8,3 6,6 67 36 68 37 SSE 1006,5 10
20.02.2020 12:00:00 8,6 6,5 65 35 68 37 S 1007,4 10
20.02.2020 11:00:00 8,5 6,8 67 36 68 37 S 1007,9 10
20.02.2020 10:00:00 8,6 6,9 67 36 68 37 S 1008,6 10
20.02.2020 09:00:00 8,7 6,9 63 34 61 33 S 1009,0 10
20.02.2020 08:00:00 8,7 6,9 57 31 61 33 S 1009,2 10
20.02.2020 07:00:00 8,8 7,0 59 32 61 33 S 1009,6 10
20.02.2020 06:00:00 8,9 7,0 57 31 58 31 S 1009,9 10
20.02.2020 05:00:00 8,7 7,0 61 33 61 33 S 1010,1 10
20.02.2020 04:00:00 8,9 6,9 67 36 65 35 S 1010,7 10
20.02.2020 03:00:00 8,9 6,9 59 32 61 33 S 1011,4 10
20.02.2020 02:00:00 8,6 7,3 59 32 61 33 S 1011,8 6
20.02.2020 01:00:00 8,2 7,3 50 27 58 31 S 1012,5 6
20.02.2020 00:00:00 7,9 7,0 55 30 54 29 S 1013,2 8
19.02.2020 23:00:00 7,8 6,6 55 30 58 31 S 1013,8 9
19.02.2020 22:00:00 7,4 6,1 46 25 47 25 S 1014,7 10
19.02.2020 21:00:00 7,0 5,2 46 25 47 25 S 1015,7 9
19.02.2020 20:00:00 7,2 3,8 46 25 47 25 S 1016,3 10
19.02.2020 19:00:00 7,7 2,3 37 20 40 21 S 1016,8 10
19.02.2020 18:00:00 7,4 1,6 42 23 43 23 SSW 1017,2 10
19.02.2020 17:00:00 6,9 1,5 42 23 43 23 SSW 1017,6 10
19.02.2020 16:00:00 6,7 1,7 42 23 43 23 SW 1017,6 10
19.02.2020 15:00:00 6,5 2,0 46 25 47 25 SW 1017,6 10
19.02.2020 14:00:00 6,4 1,6 44 24 50 27 SW 1017,7 10
19.02.2020 13:00:00 6,1 1,8 48 26 54 29 SW 1017,4 10
19.02.2020 12:00:00 6,2 1,7 57 31 58 31 WSW 1017,1 10
19.02.2020 11:00:00 6,2 1,7 55 30 58 31 WSW 1016,2 10
19.02.2020 10:00:00 6,4 1,6 61 33 61 33 WSW 1015,3 10
19.02.2020 09:00:00 6,4 1,5 63 34 61 33 W 1014,3 10
19.02.2020 08:00:00 6,4 1,6 61 33 65 35 W 1013,5 10
19.02.2020 07:00:00 6,5 1,6 50 27 65 35 W 1012,4 20
19.02.2020 06:00:00 6,4 1,7 61 33 65 35 W 1012,0 10
19.02.2020 05:00:00 6,4 1,6 65 35 65 35 W 1011,0 10
19.02.2020 04:00:00 6,6 1,9 65 35 61 33 W 1010,4 10
19.02.2020 03:00:00 6,6 2,2 50 27 61 33 W 1009,7 24
19.02.2020 02:00:00 7,2 3,3 54 29 58 31 WSW 1009,6 10
19.02.2020 01:00:00 7,5 3,0 57 31 58 31 WSW 1009,4 10
19.02.2020 00:00:00 7,5 4,0 54 29 58 31 SW 1008,9 10
18.02.2020 23:00:00 7,3 4,1 52 28 68 37 WSW 1009,2 5
18.02.2020 22:00:00 8,2 5,3 68 37 68 37 SSW 1009,5 10
18.02.2020 21:00:00 8,7 5,1 65 35 68 37 S 1010,6 10
18.02.2020 20:00:00 8,9 5,2 67 36 72 39 S 1011,3 10
18.02.2020 19:00:00 8,8 5,0 55 30 61 33 S 1012,5 10
18.02.2020 18:00:00 8,7 4,6 61 33 61 33 S 1013,2 10
18.02.2020 17:00:00 8,4 4,3 63 34 65 35 S 1014,0 10
18.02.2020 16:00:00 8,1 4,0 61 33 65 35 SSW 1014,5 10
18.02.2020 15:00:00 7,8 3,9 55 30 58 31 SSW 1015,1 10
18.02.2020 14:00:00 7,5 3,0 59 32 61 33 SSW 1015,8 10
18.02.2020 13:00:00 7,2 2,7 55 30 58 31 SSW 1016,1 10
18.02.2020 12:00:00 7,0 2,7 57 31 58 31 SSW 1016,4 10
18.02.2020 11:00:00 7,0 2,4 57 31 58 31 SSW 1016,4 10
18.02.2020 10:00:00 7,0 2,6 55 30 - - SSW 1016,4 10
18.02.2020 09:00:00 6,8 2,1 54 29 54 29 SSW 1016,0 10
18.02.2020 08:00:00 6,7 1,5 52 28 58 31 SW 1015,8 10
18.02.2020 07:00:00 6,7 1,6 59 32 61 33 SW 1015,2 10
18.02.2020 06:00:00 6,8 1,5 61 33 65 35 SW 1014,4 10
18.02.2020 05:00:00 6,9 0,9 63 34 65 35 SW 1013,9 10
18.02.2020 04:00:00 7,1 1,1 59 32 - - SW 1013,5 10
18.02.2020 03:00:00 7,4 2,3 63 34 65 35 SW 1013,6 10
18.02.2020 02:00:00 7,4 1,5 65 35 65 35 SW 1012,9 10
18.02.2020 01:00:00 8,0 2,9 59 32 61 33 SW 1012,0 10
18.02.2020 00:00:00 8,4 4,4 65 35 65 35 SSW 1011,1 10
17.02.2020 23:00:00 8,6 4,9 55 30 58 31 SW 1010,5 10
17.02.2020 22:00:00 9,0 5,2 54 29 58 31 SSW 1010,0 10
17.02.2020 21:00:00 8,9 5,0 54 29 54 29 SSW 1009,4 10
17.02.2020 20:00:00 8,8 5,7 50 27 54 29 SSW 1009,0 10
17.02.2020 19:00:00 8,7 5,8 46 25 50 27 S 1008,2 10
17.02.2020 18:00:00 8,8 5,0 52 28 54 29 SSW 1007,5 10
17.02.2020 17:00:00 8,7 4,7 47 25 61 33 S 1006,9 16
17.02.2020 16:00:00 8,6 4,3 59 32 68 37 SSW 1006,7 10
17.02.2020 15:00:00 8,4 4,0 63 34 68 37 SSW 1006,3 10
17.02.2020 14:00:00 8,2 3,3 61 33 65 35 S 1005,8 10
17.02.2020 13:00:00 8,1 3,6 65 35 72 39 S 1005,8 10
17.02.2020 12:00:00 8,0 3,3 68 37 72 39 S 1005,4 10
17.02.2020 11:00:00 8,9 4,5 58 31 76 41 S 1005,6 12
17.02.2020 10:00:00 8,9 3,8 58 31 76 41 S 1005,3 13
17.02.2020 09:00:00 8,7 4,2 58 31 76 41 S 1005,0 11
17.02.2020 08:00:00 8,8 2,8 61 33 86 47 SSW 1004,3 12
17.02.2020 07:00:00 8,8 2,5 65 35 83 45 SSW 1004,0 12
17.02.2020 06:00:00 8,4 1,9 61 33 79 43 SSW 1003,9 13
17.02.2020 05:00:00 8,0 2,4 65 35 83 45 SSW 1003,9 13
17.02.2020 04:00:00 8,0 2,4 61 33 83 45 SSW 1003,1 13
17.02.2020 03:00:00 7,9 2,0 65 35 86 47 SSW 1002,0 15
17.02.2020 02:00:00 8,2 1,7 68 37 86 47 SSW 1000,5 18
17.02.2020 01:00:00 8,6 2,1 72 39 90 49 SSW 999,1 14
17.02.2020 00:00:00 8,8 3,5 78 42 76 41 SSW 998,5 10
16.02.2020 23:00:00 8,9 4,4 74 40 76 41 SSW 997,5 10
16.02.2020 22:00:00 8,8 4,3 70 38 72 39 SSW 996,9 10
16.02.2020 21:00:00 8,5 4,9 72 39 72 39 SSW 996,4 10
16.02.2020 20:00:00 8,7 5,7 72 39 72 39 SSW 995,1 10
16.02.2020 19:00:00 8,3 6,3 48 26 58 31 S 994,1 10
16.02.2020 18:00:00 7,5 6,6 55 30 58 31 SW 993,5 4,4
16.02.2020 17:00:00 8,0 7,1 57 31 65 35 SW 992,5 1,2
16.02.2020 16:00:00 8,3 7,9 44 24 43 23 S 992,0 3,1
16.02.2020 15:00:00 8,6 8,2 44 24 43 23 SSW 992,4 2,7
16.02.2020 14:00:00 9,9 7,4 48 26 65 35 S 993,7 10
16.02.2020 13:00:00 10,2 8,3 63 34 72 39 S 993,9 8
16.02.2020 12:00:00 10,9 8,9 72 39 90 49 S 993,6 8
16.02.2020 11:00:00 11,9 9,4 93 50 97 53 S 992,4 9
16.02.2020 10:00:00 10,8 9,1 87 47 90 49 S 992,1 8
16.02.2020 09:00:00 10,8 9,5 96 52 101 54 SSE 991,9 9
16.02.2020 08:00:00 11,1 9,2 94 51 97 53 SSE 992,0 10
16.02.2020 07:00:00 11,1 9,0 102 55 101 54 SSE 992,2 10

tt = temperature
td = dewpoint
ff = wind speed
fx = gusts
dd = wind direction
ppp = reduced air pressure
vv = visibility

Next stations